Hourly Weather Roundup
Issued by NWS Central Illinois

Home | Current Version | Previous Version | Text Only | Print | Product List | Glossary On
Versions: 1 2 3 4 5 6 7 8 9 10 11 12 13 14 15 16 17 18 19 20 21 22 23 24 25 26 27 28 29 30 31 32 33 34 35 36 37 38 39 40 41 42 43 44 45 46 47 48 49 50
000
NZUS43 KILX 270410
HWRILX

AREA WEATHER ROUNDUP
NATIONAL WEATHER SERVICE, LINCOLN IL
1100 PM CDT SUN MAR 26 2017


CITY           SKY/WX    TMP DP  RH WIND       PRES   REMARKS
BLOOMINGTON    CLOUDY    49  48  97 W9        29.95S
CHAMPAIGN      CLOUDY    53  47  79 W10       29.95S
DECATUR        CLOUDY    53  47  79 NW9       29.95F
EFFINGHAM      CLOUDY    52  51  96 CALM      29.98S
FLORA          CLOUDY    48  47  95 CALM      29.97S
GALESBURG      CLOUDY    47  46  96 SW6       29.94R FOG
JACKSONVILLE   CLOUDY    47  45  91 N5        29.94F
LACON          CLOUDY    49  48  93 W6        29.93S
LAWRENCEVILLE  PTCLDY    50  48  93 S3        29.98F
LITCHFIELD     CLOUDY    47  46  98 E3        29.94F
$$


CITY           SKY/WX    TMP DP  RH WIND       PRES   REMARKS
LINCOLN        CLOUDY    52  49  89 NW3       29.95S
MACOMB         CLOUDY    48  47  97 W6        29.97F FOG
MATTOON        CLOUDY    53  49  86 SW5       29.96R
MT CARMEL AP   PTCLDY    48  44  88 CALM      29.97F
OLNEY-NOBLE AP CLOUDY    46  46 100 CALM      29.98S
PARIS          MOCLDY    50  48  92 SW7       29.97S
PEORIA         CLOUDY    50  47  89 SW9       29.95R
PONTIAC        CLOUDY    50  50  99 W9        29.93F
RANTOUL        CLOUDY    52  51  95 W7        29.94F
SPRINGFIELD    CLOUDY    52  47  83 NW5       29.95F
TAYLORVILLE    MOCLDY    48  46  93 CALM      29.95F
$$

...REGIONAL REPORTS...


CITY           SKY/WX    TMP DP  RH WIND       PRES   REMARKS
CHICAGO O`HARE CLOUDY    53  49  86 SW8       29.88R
KANKAKEE       CLOUDY    51  49  92 W12       29.92F
MOLINE         CLOUDY    49  45  86 W13       29.93R
MOUNT STERLING CLOUDY    46  45  95 CALM      29.93F
MOUNT VERNON   MOCLDY    49  47  93 CALM      29.95F
PITTSFIELD     MOCLDY    49  46  92 CALM      29.95S
QUINCY         CLOUDY    49  45  86 N3        29.93F
ROCKFORD       CLOUDY    50  49  96 NW8       29.91R FOG
$$


CITY           SKY/WX    TMP DP  RH WIND       PRES   REMARKS
BURLINGTON     CLOUDY    48  47  96 CALM      29.94F FOG
CEDAR RAPIDS   CLOUDY    45  45 100 W5        29.92S
DES MOINES     CLOUDY    46  44  93 N3        29.94F
KIRKSVILLE     CLOUDY    48  44  86 CALM      29.94F
OTTUMWA        CLOUDY    46  46 100 NW5       29.93F FOG
ST LOUIS       MOCLDY    55  48  77 NE5       29.93F
$$


CITY           SKY/WX    TMP DP  RH WIND       PRES   REMARKS
TERRE HAUTE    CLEAR     50  46  86 SW5       29.96S
EVANSVILLE     CLOUDY    52  46  80 CALM      29.99F
INDIANAPOLIS   MOCLDY    53  48  83 SW12      29.96R
LAFAYETTE      CLOUDY    52  52 100 W7        29.93F FOG
MADISON        CLOUDY    40  39  97 W3        29.90S
MILWAUKEE      CLOUDY    42  40  92 CALM      29.88R FOG
$$






USA.gov is the U.S. government's official web portal to all federal, state and local government web resources and services.